sat.trackr.live / text

‹ back to catalog

STARLINK-36961

NORAD 68900 · 2026-097F

PAYLOAD ACTIVE UNKNOWN

§ Identity

Operator
Country
US
Launch date
2026-04-30
Launch site
AFWTR
Launch vehicle
Mass (kg)
RCS (m²)

Purposes: comms

External: N2YO · Heavens-Above · Gunter

§ Orbital elements

Epoch: 2026-09-19T23:54:35.059104Z

Period
93.91 min
Inclination
97.2857°
Eccentricity
0.0001423
Mean motion
15.33446245 rev/d
Perigee alt
464.6 km
Apogee alt
466.5 km
Semi-major
6,843.7 km
B*
2.5941e-4
RAAN
97.1300°
Arg perigee
99.2729°
Mean anomaly
260.8675°
Rev number
2,201

§ Raw data

STARLINK-369611 68900U 26097F   26262.99623911  .00008309  00000+0  25941-3 0  99982 68900  97.2857  97.1300 0001423  99.2729 260.8675 15.33446245 22017

JSON: /api/v1/satellites/68900 · /tle

For live sub-satellite position, see the globe view (requires WebGL).

§ Visibility from observer

Set your observer location to see the next 7 days of passes ≥ 10°. The values pass through the URL so the page stays shareable.

No JS? Fill the form by hand. The geolocation button needs JavaScript.